Flag for Russia Weather past 2 weeks in Surgut, Russia

Now
54 °F

Sprinkles. Broken clouds.


Feels Like: 50 °F
Forecast: 44 / 56 °F
Wind: 10 mph from Southwest

Location: Surgut Airport

Current Time: Sep 2, 2015 at 2:27:24 PM

Latest Report: Sep 2, 2015 at 2:00 PM


Visibility: 4 mi

Pressure: 29.62 "Hg

Humidity: 77%

Dew point: 46 °F

Location of SurgutLocation

Historic Weather in Surgut — Graph

°F

Surgut temperature yesterday

Maximum temperature yesterday: 59 °F (at 9:30 AM)
Minimum temperature yesterday: 52 °F (at 12:30 AM)
Average temperature yesterday: 56 °F

Past Weeks' High & Low Weather Summary

 TemperatureHumidityPressure
High61 °F (Aug 28, 3:30 PM)100% (Aug 20, 1:00 AM)30.09 "Hg (Aug 20, 1:00 AM)
Low34 °F (Aug 26, 2:00 AM)42% (Aug 28, 3:30 PM)29.45 "Hg (Aug 24, 2:00 AM)
Average50 °F84%29.68 "Hg
* Reported Aug 18 1:00 PM — Sep 2 1:00 PM, Surgut, Weather by CustomWeather, © 2015

Note: Actual official high and low records may vary slightly from our data, if they occured in-between our weather recording intervals... More about our weather records

Advertising

Surgut weather history for previous 24 hours

 ConditionsComfort  
Time TempWeatherWind HumidityBarometerVisibility
1:00 PM
Wed, Sep 2
57 °FBroken clouds.13 mph63%29.62 "Hg4 mi
12:30 PM57 °FBroken clouds.13 mph63%29.59 "Hg4 mi
12:00 PM57 °FBroken clouds.13 mph72%29.59 "Hg4 mi
11:30 AM55 °FBroken clouds.13 mph82%29.59 "Hg4 mi
11:00 AM52 °FBroken clouds.8 mph88%29.59 "Hg4 mi
10:30 AM55 °FScattered clouds.6 mph77%29.59 "Hg4 mi
10:00 AM54 °FScattered clouds.3 mph88%29.59 "Hg4 mi
9:30 AM54 °FScattered clouds.3 mph88%29.56 "Hg4 mi
8:30 AM52 °FBroken clouds.6 mph94%29.56 "Hg4 mi
8:00 AM52 °FSprinkles. Broken clouds.6 mph94%29.56 "Hg4 mi
7:30 AM50 °FSprinkles. Broken clouds.8 mph100%29.53 "Hg4 mi
7:00 AM50 °FBroken clouds.8 mph100%29.53 "Hg4 mi
6:30 AM50 °FSprinkles. Partly sunny.8 mph100%29.53 "Hg4 mi
6:00 AM50 °FSprinkles. Fog.8 mph100%29.50 "Hg1 mi
5:30 AM52 °FPassing clouds.8 mph94%29.50 "Hg4 mi
5:00 AM52 °FPassing clouds.6 mph94%29.50 "Hg4 mi
4:30 AM52 °FPassing clouds.8 mph94%29.50 "Hg4 mi
4:00 AM52 °FPassing clouds.6 mph100%29.50 "Hg4 mi
3:30 AM54 °FPassing clouds.3 mph94%29.50 "Hg4 mi
2:30 AM54 °FPartly cloudy.6 mph94%29.50 "Hg4 mi
2:00 AM54 °FPartly cloudy.6 mph100%29.50 "Hg4 mi
1:30 AM55 °FSprinkles. Partly cloudy.3 mph94%29.50 "Hg4 mi
1:00 AM55 °FPassing clouds.1 mph94%29.50 "Hg4 mi
12:30 AM55 °FPartly cloudy.1 mph94%29.50 "Hg4 mi
12:00 AM55 °FPartly cloudy.3 mph94%29.50 "Hg4 mi
11:30 PM
Tue, Sep 1
55 °FPartly cloudy.1 mph94%29.50 "Hg4 mi
11:00 PM55 °FSprinkles. Partly cloudy.6 mph100%29.50 "Hg4 mi
10:30 PM55 °FSprinkles. Partly cloudy.13 mph100%29.53 "Hg3 mi
10:00 PM55 °FThunderstorms. Partly cloudy.3 mph100%29.53 "Hg3 mi
9:30 PM57 °FSprinkles. Partly cloudy.6 mph94%29.53 "Hg4 mi
9:00 PM57 °FPartly cloudy.3 mph100%29.56 "Hg4 mi
8:30 PM57 °FSprinkles. Partly cloudy.3 mph100%29.56 "Hg4 mi
8:00 PM57 °FSprinkles. Scattered clouds.No wind100%29.59 "Hg4 mi
7:30 PM59 °FBroken clouds.No wind94%29.59 "Hg4 mi
7:00 PM59 °FMostly cloudy.3 mph94%29.59 "Hg4 mi
6:30 PM59 °FBroken clouds.6 mph94%29.62 "Hg4 mi
6:00 PM59 °FBroken clouds.6 mph88%29.62 "Hg4 mi
5:30 PM59 °FBroken clouds.6 mph88%29.62 "Hg4 mi
5:00 PM59 °FBroken clouds.1 mph88%29.62 "Hg4 mi
4:30 PM59 °FBroken clouds.3 mph88%29.62 "Hg4 mi
4:00 PM59 °FBroken clouds.6 mph88%29.65 "Hg4 mi
3:30 PM59 °FBroken clouds.No wind88%29.65 "Hg4 mi
3:00 PM59 °FBroken clouds.1 mph88%29.65 "Hg4 mi
2:30 PM59 °FBroken clouds.No wind88%29.65 "Hg4 mi
2:00 PM59 °FBroken clouds.No wind82%29.65 "Hg4 mi
Weather by CustomWeather, © 2015

See weather overviewHow to use our weather pages